Location: Ch�risy
(50.2331°N, 2.9131°E)
Time: 01:24:07
(UTC+00:00)

H-2A R/B - Pass Details

Date: 17 January 2021
Orbit: 734 x 836 km, 98.2° (Epoch: 28 February)

Event Time Altitude Azimuth Distance (km) Brightness Sun altitude
Rises 18:04:30 0° 153° (SSE) 3,164 5.0 -16.6°
Reaches altitude 10° 18:06:46 10° 150° (SSE) 2,254 4.2 -17.0°
Maximum altitude 18:11:39 62° 71° (ENE) 849 1.9 -17.7°
Drops below altitude 10° 18:16:41 10° 351° (N) 2,323 4.5 -18.5°
Sets 18:19:03 0° 349° (NNW) 3,270 5.3 -18.9°
